• In United Kingdom
  • List of Countries
  • For 7 days
  • Water Temperature
  • Satellite Maps
  • Weather Map
  • Weather Widgets
  • user-avatar
    Login

    Hourly Weather Yaremcha

    Today, 15 December, Friday

    Time Temperature Precipitation Wind Pressure Humidity
    00:00 +1°C° 0 mm 2 mps 698 mmHg 84%
    01:00 +1°C° 0 mm 2 mps 698 mmHg 85%
    02:00 +2°C° 0 mm 1 mps 697 mmHg 89%
    03:00 +1°C° 0.1 mm 2 mps 697 mmHg 89%
    04:00 +1°C° 0.1 mm 2 mps 697 mmHg 90%
    05:00 +1°C° 0.1 mm 2 mps 697 mmHg 90%
    06:00 +2°C° 0 mm 2 mps 697 mmHg 90%
    07:00 +2°C° 0 mm 2 mps 697 mmHg 90%
    08:00 +2°C° 0 mm 2 mps 697 mmHg 89%
    09:00 +3°C° 0.4 mm 2 mps 697 mmHg 88%
    10:00 +2°C° 0.4 mm 3 mps 696 mmHg 86%
    11:00 +3°C° 0.4 mm 3 mps 696 mmHg 84%
    12:00 +4°C° 1 mm 3 mps 696 mmHg 84%
    13:00 +4°C° 1 mm 3 mps 695 mmHg 84%
    14:00 +4°C° 1 mm 4 mps 695 mmHg 84%
    15:00 +4°C° 0.4 mm 4 mps 695 mmHg 84%
    16:00 +4°C° 0.4 mm 4 mps 695 mmHg 85%
    17:00 +4°C° 0.4 mm 4 mps 695 mmHg 85%
    18:00 +4°C° 0.3 mm 4 mps 696 mmHg 85%
    19:00 +4°C° 0.3 mm 3 mps 696 mmHg 86%
    20:00 +4°C° 0.3 mm 3 mps 696 mmHg 86%
    21:00 +4°C° 0.2 mm 3 mps 696 mmHg 88%
    22:00 +4°C° 0.2 mm 2 mps 696 mmHg 89%
    23:00 +4°C° 0.2 mm 2 mps 696 mmHg 91%

    Tomorrow, 16 December, Saturday

    Time Temperature Precipitation Wind Pressure Humidity
    00:00 +5°C° 0.6 mm 1 mps 696 mmHg 92%
    01:00 +5°C° 0.6 mm 1 mps 695 mmHg 93%
    02:00 +5°C° 0.6 mm 1 mps 694 mmHg 94%
    03:00 +4°C° 1.7 mm 1 mps 694 mmHg 95%
    04:00 +4°C° 1.7 mm 1 mps 693 mmHg 96%
    05:00 +4°C° 1.7 mm 1 mps 692 mmHg 96%
    06:00 +4°C° 1.5 mm 1 mps 692 mmHg 96%
    07:00 +4°C° 1.5 mm 1 mps 691 mmHg 95%
    08:00 +4°C° 1.5 mm 1 mps 691 mmHg 95%
    09:00 +3°C° 0.7 mm 2 mps 691 mmHg 94%
    10:00 +4°C° 0.7 mm 2 mps 691 mmHg 92%
    11:00 +3°C° 0.7 mm 3 mps 692 mmHg 91%
    12:00 +3°C° 0.5 mm 3 mps 692 mmHg 91%
    13:00 +3°C° 0.5 mm 3 mps 693 mmHg 90%
    14:00 +2°C° 0.5 mm 3 mps 693 mmHg 90%
    15:00 +2°C° 0.2 mm 3 mps 694 mmHg 91%
    16:00 +1°C° 0.2 mm 3 mps 695 mmHg 92%
    17:00 0°C° 0.2 mm 3 mps 696 mmHg 92%
    18:00 +1°C° 0.2 mm 2 mps 696 mmHg 92%
    19:00 +1°C° 0.2 mm 2 mps 697 mmHg 93%
    20:00 -1°C° 0.2 mm 2 mps 698 mmHg 93%
    21:00 -1°C° 0.2 mm 2 mps 699 mmHg 93%
    22:00 -1°C° 0.2 mm 2 mps 699 mmHg 93%
    23:00 -1°C° 0.2 mm 2 mps 700 mmHg 93%

    Day after tomorrow, 17 December, Sunday

    Time Temperature Precipitation Wind Pressure Humidity
    00:00 -1°C° 0.1 mm 2 mps 701 mmHg 93%
    01:00 -2°C° 0.1 mm 2 mps 701 mmHg 93%
    02:00 -2°C° 0.1 mm 2 mps 701 mmHg 93%
    03:00 -2°C° 0.1 mm 2 mps 701 mmHg 93%
    04:00 -3°C° 0.1 mm 2 mps 702 mmHg 93%
    05:00 -3°C° 0.1 mm 2 mps 702 mmHg 92%
    06:00 -3°C° 0 mm 2 mps 702 mmHg 92%
    07:00 -2°C° 0 mm 1 mps 703 mmHg 92%
    08:00 -2°C° 0 mm 1 mps 703 mmHg 92%
    09:00 -1°C° 0 mm 1 mps 703 mmHg 88%
    10:00 -1°C° 0 mm 1 mps 704 mmHg 84%
    11:00 0°C° 0 mm 1 mps 704 mmHg 80%
    12:00 -2°C° 0 mm 2 mps 704 mmHg 79%
    13:00 -1°C° 0 mm 2 mps 704 mmHg 78%
    14:00 -1°C° 0 mm 2 mps 704 mmHg 77%
    15:00 -2°C° 0 mm 2 mps 705 mmHg 81%
    16:00 0°C° 0 mm 1 mps 705 mmHg 84%
    17:00 -1°C° 0 mm 1 mps 705 mmHg 88%
    18:00 -2°C° 0 mm 1 mps 706 mmHg 89%
    19:00 -2°C° 0 mm 1 mps 706 mmHg 89%
    20:00 -2°C° 0 mm 1 mps 706 mmHg 90%
    21:00 -2°C° 0 mm 1 mps 706 mmHg 89%
    22:00 -3°C° 0 mm 1 mps 707 mmHg 89%
    23:00 -3°C° 0 mm 1 mps 707 mmHg 88%

    18 December, Monday

    Time Temperature Precipitation Wind Pressure Humidity
    00:00 -3°C° 0 mm 1 mps 707 mmHg 88%
    01:00 -3°C° 0 mm 1 mps 707 mmHg 87%
    02:00 -4°C° 0 mm 1 mps 707 mmHg 87%
    03:00 -4°C° 0 mm 1 mps 707 mmHg 87%
    04:00 -4°C° 0 mm 1 mps 707 mmHg 86%
    05:00 -4°C° 0 mm 1 mps 708 mmHg 86%
    06:00 -4°C° 0.1 mm 1 mps 708 mmHg 86%
    07:00 -3°C° 0.1 mm 1 mps 708 mmHg 87%
    08:00 -3°C° 0.1 mm 1 mps 708 mmHg 87%
    09:00 -3°C° 0.1 mm 1 mps 708 mmHg 84%
    10:00 -2°C° 0.1 mm 1 mps 708 mmHg 81%
    11:00 -1°C° 0.1 mm 1 mps 709 mmHg 79%
    12:00 -1°C° 0.1 mm 1 mps 709 mmHg 76%
    13:00 -3°C° 0.1 mm 2 mps 708 mmHg 74%
    14:00 -3°C° 0.1 mm 2 mps 708 mmHg 71%
    15:00 -1°C° 0.1 mm 1 mps 708 mmHg 76%
    16:00 -2°C° 0.1 mm 1 mps 708 mmHg 80%
    17:00 -3°C° 0.1 mm 1 mps 708 mmHg 84%
    18:00 -3°C° 0 mm 1 mps 709 mmHg 85%
    19:00 -3°C° 0 mm 1 mps 709 mmHg 86%
    20:00 -4°C° 0 mm 1 mps 709 mmHg 87%
    21:00 -4°C° 0 mm 1 mps 710 mmHg 86%
    22:00 -4°C° 0 mm 1 mps 710 mmHg 86%
    23:00 -4°C° 0 mm 1 mps 710 mmHg 86%

    19 December, Tuesday

    Time Temperature Precipitation Wind Pressure Humidity
    00:00 -4°C° 0.1 mm 1 mps 710 mmHg 85%
    01:00 -4°C° 0.1 mm 1 mps 710 mmHg 85%
    02:00 -3°C° 0.1 mm 1 mps 710 mmHg 85%
    03:00 -3°C° 0.2 mm 1 mps 711 mmHg 85%
    04:00 -3°C° 0.2 mm 1 mps 711 mmHg 86%
    05:00 -3°C° 0.2 mm 1 mps 711 mmHg 87%
    06:00 -3°C° 0.1 mm 1 mps 712 mmHg 88%
    07:00 -3°C° 0.1 mm 1 mps 712 mmHg 89%
    08:00 -3°C° 0.1 mm 1 mps 712 mmHg 91%
    09:00 -3°C° 0.1 mm 1 mps 713 mmHg 89%
    10:00 -2°C° 0.1 mm 1 mps 713 mmHg 86%
    11:00 -2°C° 0.1 mm 1 mps 714 mmHg 84%
    12:00 -4°C° 0.1 mm 2 mps 714 mmHg 82%
    13:00 -3°C° 0.1 mm 2 mps 714 mmHg 80%
    14:00 -3°C° 0.1 mm 2 mps 714 mmHg 78%
    15:00 -4°C° 0 mm 2 mps 714 mmHg 82%
    16:00 -5°C° 0 mm 2 mps 714 mmHg 86%
    17:00 -4°C° 0 mm 1 mps 715 mmHg 90%
    18:00 -6°C° 0 mm 1 mps 715 mmHg 90%
    19:00 -7°C° 0 mm 2 mps 715 mmHg 90%
    20:00 -7°C° 0 mm 2 mps 715 mmHg 90%
    21:00 -8°C° 0 mm 2 mps 716 mmHg 90%
    22:00 -8°C° 0 mm 2 mps 716 mmHg 89%
    23:00 -8°C° 0 mm 2 mps 716 mmHg 89%

    20 December, Wednesday

    Time Temperature Precipitation Wind Pressure Humidity
    00:00 -8°C° 0 mm 2 mps 715 mmHg 88%
    01:00 -7°C° 0 mm 1 mps 715 mmHg 87%
    02:00 -8°C° 0 mm 1 mps 715 mmHg 87%
    03:00 -8°C° 0 mm 1 mps 715 mmHg 85%
    04:00 -7°C° 0 mm 1 mps 715 mmHg 83%
    05:00 -7°C° 0 mm 1 mps 715 mmHg 82%
    06:00 -7°C° 0 mm 1 mps 714 mmHg 81%
    07:00 -7°C° 0 mm 1 mps 714 mmHg 80%
    08:00 -7°C° 0 mm 1 mps 714 mmHg 79%
    09:00 -6°C° 0 mm 1 mps 714 mmHg 77%
    10:00 -4°C° 0 mm 1 mps 715 mmHg 74%
    11:00 -3°C° 0 mm 1 mps 715 mmHg 72%
    12:00 -2°C° 0 mm 1 mps 714 mmHg 71%
    13:00 -2°C° 0 mm 1 mps 714 mmHg 71%
    14:00 -1°C° 0 mm 1 mps 714 mmHg 70%
    15:00 -2°C° 0 mm 1 mps 714 mmHg 75%
    16:00 -3°C° 0 mm 1 mps 714 mmHg 79%
    17:00 -3°C° 0 mm 1 mps 714 mmHg 83%
    18:00 -4°C° 0 mm 1 mps 714 mmHg 84%
    19:00 -4°C° 0 mm 1 mps 714 mmHg 84%
    20:00 -4°C° 0 mm 1 mps 714 mmHg 85%
    21:00 -4°C° 0 mm 1 mps 714 mmHg 85%
    22:00 -4°C° 0 mm 1 mps 715 mmHg 85%
    23:00 -4°C° 0 mm 1 mps 715 mmHg 85%
    Show more